sat.trackr.live / text

‹ back to catalog

ONEWEB-0387

NORAD 49313 · 2021-090AL

PAYLOAD ACTIVE UNKNOWN

§ Identity

Operator
Country
UK
Launch date
2021-10-14
Launch site
VOSTO
Launch vehicle
Mass (kg)
RCS (m²)

Purposes: comms

External: N2YO · Heavens-Above · Gunter

§ Orbital elements

Epoch: 2026-09-20T05:09:53.545248Z

Period
109.03 min
Inclination
87.9148°
Eccentricity
0.0002122
Mean motion
13.20772891 rev/d
Perigee alt
1,180.2 km
Apogee alt
1,183.4 km
Semi-major
7,559.9 km
B*
1.8574e-4
RAAN
255.4909°
Arg perigee
97.3639°
Mean anomaly
262.7735°
Rev number
24,236

§ Raw data

ONEWEB-03871 49313U 21090AL  26263.21520307  .00000089  00000+0  18574-3 0  99952 49313  87.9148 255.4909 0002122  97.3639 262.7735 13.20772891242366

JSON: /api/v1/satellites/49313 · /tle

For live sub-satellite position, see the globe view (requires WebGL).

§ Visibility from observer

Set your observer location to see the next 7 days of passes ≥ 10°. The values pass through the URL so the page stays shareable.

No JS? Fill the form by hand. The geolocation button needs JavaScript.